Weather History for Oslo Airport, Norway

Change the Weather History Date:

Friday, October 19, 2012

  Actual Average Record
Temperature  
Mean Temperature 46 °F -  
Max Temperature 50 °F 39 °F 53 °F (2008)
Min Temperature 41 °F 30 °F 15 °F (2002)
Degree Days  
Heating Degree Days 20    
Moisture  
Dew Point 43 °F    
Average Humidity 89    
Maximum Humidity 100    
Minimum Humidity 74    
Precipitation  
Precipitation 0.00 in 0.12 in - ()
Sea Level Pressure  
Sea Level Pressure 29.82 in    
Wind  
Wind Speed 6 mph ()    
Max Wind Speed 13 mph    
Max Gust Speed -    
Visibility 6.2 miles    
Events      
Averages and records for this station are not official NWS values.
T = Trace of Precipitation, MM = Missing Value Source: Averaged Metar Reports

Daily Weather History Graph

Daily Weather History Graph

Search for Another Location

Airport:

Trip Planner

Search our weather history database for the weather conditions in past years. The results will help you decide how hot, cold, wet, or windy it might be!

Date:

Astronomy

Oct. 19, 2012 Rise Set
Actual Time 8:06 AM CEST 5:53 PM CEST
Civil Twilight 7:23 AM CEST 6:36 PM CEST
Nautical Twilight 6:34 AM CEST 7:25 PM CEST
Astronomical Twilight 5:45 AM CEST 8:13 PM CEST
Moon 1:34 PM CEST (10/19) 8:12 PM CEST (10/19)
Length of Visible Light 11h 13m
Length of Day
9h 47m
Waxing Crescent, 21% of the Moon is Illuminated
Oct 19
Waxing Crescent
Oct 22
First Quarter
Oct 29
Full
Nov 7
Last Quarter
Nov 13
New

Hourly Weather History & Observations

Time (CEST) Temp. Windchill Dew Point Humidity Pressure Visibility Wind Dir Wind Speed Gust Speed Precip Events Conditions
12:11 AM 50.0 °F - 46.4 °F 87% 29.62 in 6.2 mi SSW 10.4 mph - N/A   Scattered Clouds
12:40 AM 48.2 °F - 46.4 °F 93% 29.62 in 6.2 mi SSW 6.9 mph - N/A   Mostly Cloudy
1:11 AM 48.2 °F - 46.4 °F 93% 29.65 in 6.2 mi South 9.2 mph - N/A   Mostly Cloudy
1:40 AM 48.2 °F - 46.4 °F 93% 29.65 in 6.2 mi South 3.5 mph - N/A   Mostly Cloudy
2:00 AM 48 °F - 46 °F 89%  in 34 mi South 6.7 mph - -   Partly Cloudy
2:12 AM 48.2 °F - 46.4 °F 93% 29.68 in 6.2 mi South 5.8 mph - N/A   Mostly Cloudy
2:40 AM 48.2 °F - 44.6 °F 87% 29.68 in 6.2 mi South 9.2 mph - N/A   Mostly Cloudy
3:10 AM 48.2 °F - 44.6 °F 87% 29.68 in 6.2 mi South 11.5 mph - N/A   Mostly Cloudy
3:42 AM 46.4 °F 41.5 °F 44.6 °F 93% 29.68 in 6.2 mi South 10.4 mph - N/A   Mostly Cloudy
4:14 AM 46.4 °F 41.9 °F 44.6 °F 93% 29.68 in 6.2 mi SSW 9.2 mph - N/A   Mostly Cloudy
4:46 AM 46.4 °F 41.9 °F 44.6 °F 93% 29.71 in 6.2 mi SSW 9.2 mph - N/A   Mostly Cloudy
5:15 AM 46.4 °F 41.9 °F 44.6 °F 93% 29.71 in 6.2 mi SSW 9.2 mph - N/A   Mostly Cloudy
5:40 AM 46.4 °F 40.7 °F 44.6 °F 93% 29.71 in 6.2 mi SSW 12.7 mph - N/A   Mostly Cloudy
6:12 AM 46.4 °F 41.5 °F 44.6 °F 93% 29.71 in 6.2 mi SSW 10.4 mph - N/A   Mostly Cloudy
6:47 AM 46.4 °F 40.7 °F 44.6 °F 93% 29.71 in 6.2 mi SSW 12.7 mph - N/A   Mostly Cloudy
7:11 AM 46.4 °F 41.5 °F 44.6 °F 93% 29.74 in 6.2 mi SSW 10.4 mph - N/A   Mostly Cloudy
7:41 AM 46.4 °F 41.9 °F 42.8 °F 87% 29.74 in 6.2 mi SSW 9.2 mph - N/A   Mostly Cloudy
8:00 AM 46 °F - 43 °F 84%  in 25 mi SW 8.9 mph - -   Partly Cloudy
8:11 AM 44.6 °F 41.4 °F 42.8 °F 93% 29.74 in - SW 5.8 mph - N/A   Clear
8:41 AM 44.6 °F 41.4 °F 42.8 °F 93% 29.77 in - SSW 5.8 mph - N/A   Clear
9:11 AM 44.6 °F 42.2 °F 42.8 °F 93% 29.77 in 6.2 mi SSW 4.6 mph - N/A   Mostly Cloudy
9:41 AM 44.6 °F 40.2 °F 42.8 °F 93% 29.80 in - SSW 8.1 mph - N/A   Clear
10:12 AM 46.4 °F 41.5 °F 42.8 °F 87% 29.80 in - SSW 10.4 mph - N/A   Clear
10:40 AM 46.4 °F 44.3 °F 42.8 °F 87% 29.80 in - SSW 4.6 mph - N/A   Clear
11:20 AM 46.4 °F 41.9 °F 42.8 °F 87% 29.83 in - SSW 9.2 mph - N/A   Clear
11:54 AM 46.4 °F 42.4 °F 44.6 °F 93% 29.83 in - South 8.1 mph - N/A   Clear
12:10 PM 48.2 °F - 42.8 °F 82% 29.83 in - South 4.6 mph - N/A   Clear
12:40 PM 48.2 °F - 44.6 °F 87% 29.83 in - South 3.5 mph - N/A   Clear
1:11 PM 50.0 °F - 42.8 °F 76% 29.86 in - South 3.5 mph - N/A   Clear
1:44 PM 50.0 °F - 42.8 °F 76% 29.86 in - Variable 1.2 mph - N/A   Clear
2:00 PM 49 °F - 43 °F 74%  in 47 mi SSW 4.5 mph - -   Partly Cloudy
2:12 PM 50.0 °F - 42.8 °F 76% 29.86 in - Variable 2.3 mph - N/A   Clear
2:40 PM 50.0 °F - 44.6 °F 82% 29.86 in - SSW 3.5 mph - N/A   Clear
3:12 PM 50.0 °F - 42.8 °F 76% 29.86 in - Variable 2.3 mph - N/A   Clear
3:41 PM 48.2 °F - 44.6 °F 87% 29.89 in - SSW 3.5 mph - N/A   Clear
4:10 PM 48.2 °F - 44.6 °F 87% 29.89 in - South 3.5 mph - N/A   Clear
4:41 PM 48.2 °F - 44.6 °F 87% 29.89 in - SSW 2.3 mph - N/A   Clear
5:10 PM 46.4 °F - 42.8 °F 87% 29.89 in - Variable 1.2 mph - N/A   Clear
5:40 PM 46.4 °F - 44.6 °F 93% 29.92 in - Calm Calm - N/A   Clear
6:15 PM 46.4 °F - 44.6 °F 93% 29.92 in - Calm Calm - N/A   Clear
6:44 PM 44.6 °F 43.1 °F 42.8 °F 93% 29.92 in - NNW 3.5 mph - N/A   Clear
7:12 PM 44.6 °F - 42.8 °F 93% 29.95 in - Variable 2.3 mph - N/A   Clear
7:40 PM 44.6 °F 43.1 °F 41.0 °F 87% 29.95 in - NNW 3.5 mph - N/A   Clear
8:00 PM 44 °F - 42 °F 91%  in 47 mi North 4.5 mph - -   Partly Cloudy
8:10 PM 42.8 °F - 41.0 °F 93% 29.95 in - Variable 2.3 mph - N/A   Clear
8:40 PM 44.6 °F 43.1 °F 42.8 °F 93% 29.95 in - NE 3.5 mph - N/A   Clear
9:11 PM 42.8 °F - 41.0 °F 93% 29.98 in - Calm Calm - N/A   Clear
9:41 PM 42.8 °F - 41.0 °F 93% 29.98 in 6.2 mi NNW 2.3 mph - N/A   Mostly Cloudy
10:13 PM 42.8 °F - 41.0 °F 93% 29.98 in - North 2.3 mph - N/A   Clear
10:40 PM 41.0 °F 39.0 °F 39.2 °F 93% 30.01 in - North 3.5 mph - N/A   Clear
11:10 PM 41.0 °F - 41.0 °F 100% 30.01 in - North 2.3 mph - N/A   Clear
11:40 PM 41.0 °F - 39.2 °F 93% 30.01 in - North 2.3 mph - N/A   Clear